GEFSMA_prec_meanprecacc_096.txt.gz
Total_Precipitation_Accumulation
0.49 0.58 0.55 0.46 0.36 0.34 0.33 0.26 0.21 0.26 0.30 0.26 0.18 0.17 0.17 0.21 0.21 0.25 0.32 0.26 0.27 0.37 0.47 0.52 0.54 0.50 0.49 0.51 0.50 0.44 0.38 0.35 0.34 0.32 0.26 0.22 0.19 0.19 0.20 0.22 0.23 0.22 0.21
0.64 0.70 0.77 0.72 0.58 0.55 0.55 0.50 0.43 0.41 0.40 0.37 0.29 0.22 0.21 0.26 0.27 0.29 0.35 0.36 0.38 0.42 0.55 0.68 0.74 0.70 0.65 0.65 0.62 0.58 0.55 0.51 0.50 0.48 0.44 0.38 0.32 0.28 0.27 0.27 0.28 0.26 0.23
0.90 0.92 0.96 0.89 0.80 0.74 0.75 0.76 0.71 0.60 0.49 0.43 0.40 0.34 0.33 0.33 0.34 0.35 0.43 0.54 0.57 0.53 0.56 0.62 0.67 0.72 0.75 0.79 0.80 0.79 0.78 0.69 0.63 0.60 0.60 0.56 0.51 0.44 0.40 0.38 0.36 0.34 0.29
1.19 1.22 1.27 1.15 1.02 1.00 1.10 1.14 1.05 0.94 0.77 0.70 0.63 0.56 0.49 0.49 0.49 0.53 0.57 0.67 0.74 0.70 0.65 0.58 0.58 0.64 0.70 0.79 0.83 0.85 0.79 0.71 0.70 0.72 0.72 0.71 0.66 0.62 0.56 0.53 0.50 0.45 0.40
1.61 1.58 1.58 1.53 1.46 1.48 1.50 1.36 1.29 1.13 1.03 0.96 0.77 0.72 0.61 0.62 0.66 0.66 0.70 0.74 0.76 0.75 0.72 0.66 0.60 0.61 0.63 0.71 0.77 0.80 0.79 0.77 0.79 0.75 0.73 0.75 0.77 0.75 0.63 0.57 0.56 0.53 0.49
2.27 2.25 2.15 2.00 1.89 1.81 1.67 1.58 1.47 1.30 1.15 1.05 0.83 0.77 0.71 0.72 0.75 0.73 0.69 0.64 0.61 0.58 0.60 0.61 0.62 0.58 0.53 0.56 0.61 0.65 0.70 0.75 0.74 0.72 0.72 0.76 0.77 0.71 0.63 0.59 0.57 0.56 0.56
2.94 2.91 2.79 2.50 2.27 2.14 1.97 1.86 1.65 1.48 1.28 1.11 1.08 0.95 0.76 0.71 0.71 0.64 0.57 0.51 0.51 0.51 0.50 0.49 0.46 0.45 0.42 0.45 0.47 0.48 0.55 0.65 0.72 0.76 0.78 0.76 0.73 0.69 0.65 0.63 0.62 0.62 0.61
3.33 3.25 3.17 3.00 2.70 2.47 2.23 1.99 1.81 1.64 1.36 1.14 1.11 1.07 0.87 0.72 0.58 0.46 0.40 0.37 0.37 0.40 0.41 0.42 0.43 0.42 0.40 0.39 0.43 0.48 0.52 0.60 0.68 0.72 0.74 0.77 0.78 0.77 0.78 0.79 0.78 0.77 0.73
3.70 3.56 3.36 3.02 2.72 2.51 2.32 2.07 1.84 1.66 1.41 1.15 1.02 1.02 0.95 0.85 0.66 0.47 0.35 0.30 0.27 0.26 0.27 0.27 0.27 0.26 0.28 0.29 0.33 0.43 0.48 0.49 0.56 0.61 0.67 0.73 0.77 0.78 0.80 0.81 0.81 0.83 0.83
3.47 3.20 3.05 2.91 2.62 2.27 1.95 1.69 1.48 1.28 1.13 0.98 0.83 0.73 0.68 0.65 0.65 0.58 0.42 0.31 0.25 0.22 0.19 0.17 0.17 0.19 0.22 0.25 0.33 0.41 0.45 0.45 0.49 0.52 0.52 0.55 0.59 0.64 0.69 0.76 0.81 0.85 0.88
3.07 2.77 2.56 2.36 2.05 1.65 1.31 1.08 0.91 0.83 0.77 0.71 0.65 0.60 0.58 0.55 0.53 0.54 0.48 0.34 0.27 0.25 0.23 0.22 0.22 0.21 0.21 0.23 0.28 0.39 0.44 0.39 0.39 0.40 0.41 0.43 0.45 0.49 0.55 0.63 0.71 0.77 0.82
2.58 2.22 1.87 1.51 1.24 1.03 0.85 0.72 0.62 0.56 0.52 0.50 0.47 0.44 0.43 0.45 0.47 0.48 0.47 0.39 0.31 0.25 0.20 0.18 0.18 0.17 0.16 0.18 0.22 0.30 0.28 0.28 0.27 0.27 0.28 0.29 0.30 0.31 0.35 0.43 0.51 0.59 0.68
1.92 1.62 1.29 1.06 0.87 0.72 0.62 0.52 0.45 0.41 0.38 0.37 0.36 0.36 0.36 0.35 0.33 0.33 0.34 0.32 0.27 0.20 0.16 0.15 0.15 0.15 0.16 0.18 0.20 0.25 0.23 0.22 0.20 0.18 0.17 0.17 0.17 0.18 0.21 0.25 0.31 0.39 0.49
1.35 1.08 0.87 0.72 0.62 0.54 0.47 0.41 0.37 0.34 0.31 0.30 0.29 0.27 0.25 0.22 0.20 0.19 0.20 0.20 0.21 0.19 0.16 0.14 0.12 0.11 0.11 0.13 0.16 0.19 0.18 0.19 0.17 0.15 0.13 0.11 0.11 0.11 0.12 0.14 0.17 0.21 0.26
0.81 0.68 0.56 0.49 0.44 0.42 0.37 0.32 0.29 0.26 0.23 0.21 0.18 0.15 0.14 0.13 0.13 0.13 0.14 0.17 0.21 0.22 0.17 0.12 0.10 0.07 0.06 0.08 0.10 0.10 0.13 0.15 0.13 0.12 0.10 0.08 0.08 0.08 0.09 0.10 0.11 0.14 0.16
0.52 0.47 0.41 0.36 0.32 0.27 0.22 0.18 0.17 0.15 0.15 0.15 0.14 0.13 0.14 0.13 0.12 0.12 0.12 0.13 0.15 0.20 0.18 0.10 0.07 0.06 0.06 0.07 0.08 0.09 0.10 0.10 0.10 0.10 0.09 0.09 0.09 0.09 0.10 0.10 0.12 0.14 0.15
0.32 0.29 0.26 0.23 0.20 0.18 0.16 0.15 0.15 0.15 0.16 0.15 0.14 0.13 0.13 0.12 0.11 0.10 0.10 0.10 0.10 0.14 0.17 0.10 0.07 0.07 0.09 0.11 0.11 0.13 0.13 0.14 0.14 0.17 0.17 0.15 0.14 0.12 0.13 0.14 0.16 0.16 0.16
0.21 0.18 0.16 0.15 0.15 0.15 0.14 0.13 0.13 0.12 0.12 0.11 0.10 0.09 0.09 0.08 0.10 0.10 0.09 0.09 0.10 0.13 0.16 0.15 0.11 0.10 0.11 0.14 0.16 0.17 0.11 0.09 0.13 0.17 0.17 0.14 0.13 0.13 0.13 0.13 0.13 0.12 0.10
0.18 0.16 0.14 0.12 0.11 0.11 0.10 0.09 0.09 0.10 0.09 0.08 0.08 0.08 0.07 0.07 0.09 0.09 0.11 0.12 0.13 0.13 0.19 0.23 0.19 0.16 0.13 0.12 0.17 0.15 0.15 0.23 0.15 0.13 0.12 0.09 0.08 0.07 0.07 0.06 0.06 0.06 0.05
0.13 0.11 0.10 0.09 0.09 0.08 0.07 0.06 0.06 0.06 0.07 0.06 0.05 0.05 0.05 0.06 0.08 0.11 0.12 0.14 0.18 0.21 0.24 0.27 0.22 0.17 0.16 0.14 0.23 0.23 0.21 0.25 0.21 0.12 0.11 0.08 0.07 0.05 0.05 0.05 0.06 0.05 0.04
0.10 0.08 0.05 0.04 0.03 0.03 0.02 0.02 0.02 0.03 0.04 0.04 0.03 0.03 0.03 0.03 0.06 0.10 0.12 0.17 0.23 0.28 0.28 0.30 0.27 0.23 0.20 0.22 0.26 0.27 0.29 0.26 0.21 0.15 0.16 0.15 0.17 0.22 0.25 0.20 0.14 0.11 0.06
0.05 0.03 0.02 0.02 0.01 0.01 0.00 0.00 0.00 0.02 0.03 0.05 0.06 0.05 0.04 0.03 0.04 0.07 0.10 0.15 0.22 0.27 0.29 0.32 0.31 0.31 0.28 0.32 0.37 0.39 0.42 0.40 0.33 0.23 0.26 0.21 0.19 0.28 0.32 0.32 0.26 0.16 0.09
0.06 0.04 0.03 0.02 0.03 0.01 0.00 0.00 0.00 0.02 0.06 0.09 0.10 0.10 0.07 0.05 0.08 0.11 0.10 0.10 0.14 0.14 0.23 0.34 0.40 0.40 0.42 0.47 0.55 0.54 0.51 0.50 0.46 0.37 0.44 0.40 0.31 0.36 0.29 0.29 0.33 0.27 0.20
0.08 0.07 0.05 0.05 0.05 0.02 0.00 0.00 0.00 0.03 0.08 0.09 0.09 0.11 0.14 0.15 0.11 0.08 0.08 0.13 0.19 0.23 0.26 0.33 0.46 0.49 0.48 0.50 0.57 0.59 0.58 0.55 0.51 0.50 0.56 0.55 0.39 0.39 0.34 0.49 0.53 0.46 0.36
0.10 0.08 0.07 0.08 0.09 0.06 0.01 0.00 0.00 0.03 0.07 0.07 0.07 0.07 0.08 0.12 0.09 0.09 0.11 0.21 0.27 0.32 0.27 0.36 0.47 0.52 0.53 0.56 0.57 0.58 0.65 0.70 0.64 0.53 0.54 0.57 0.51 0.43 0.45 0.64 0.64 0.65 0.55
0.11 0.09 0.09 0.10 0.12 0.10 0.02 0.00 0.01 0.03 0.07 0.08 0.11 0.13 0.09 0.08 0.10 0.10 0.10 0.20 0.29 0.32 0.42 0.62 0.75 0.75 0.71 0.69 0.63 0.64 0.73 0.75 0.74 0.70 0.60 0.60 0.65 0.58 0.59 0.69 0.76 0.72 0.67

GEFSMA_prec_meanprecacc_102.txt.gz
Total_Precipitation_Accumulation
0.57 0.64 0.59 0.51 0.42 0.41 0.37 0.30 0.23 0.28 0.31 0.27 0.19 0.18 0.18 0.22 0.23 0.26 0.34 0.29 0.30 0.42 0.54 0.58 0.61 0.55 0.54 0.58 0.58 0.53 0.45 0.41 0.39 0.36 0.30 0.25 0.22 0.22 0.23 0.25 0.25 0.24 0.23
0.75 0.80 0.85 0.80 0.67 0.63 0.63 0.58 0.50 0.46 0.43 0.40 0.32 0.25 0.24 0.30 0.32 0.32 0.38 0.39 0.42 0.48 0.61 0.76 0.81 0.76 0.71 0.72 0.68 0.64 0.60 0.56 0.54 0.52 0.48 0.41 0.35 0.32 0.32 0.32 0.32 0.29 0.26
1.02 1.03 1.10 1.03 0.93 0.87 0.87 0.87 0.81 0.70 0.56 0.49 0.46 0.41 0.38 0.38 0.40 0.41 0.49 0.59 0.61 0.59 0.63 0.70 0.75 0.80 0.81 0.86 0.86 0.84 0.83 0.75 0.68 0.64 0.64 0.60 0.55 0.49 0.45 0.43 0.41 0.38 0.33
1.34 1.37 1.44 1.34 1.22 1.19 1.25 1.27 1.15 1.04 0.89 0.83 0.76 0.68 0.58 0.58 0.58 0.63 0.66 0.75 0.82 0.76 0.71 0.64 0.63 0.70 0.77 0.86 0.89 0.90 0.84 0.75 0.74 0.75 0.76 0.75 0.69 0.64 0.59 0.57 0.55 0.51 0.45
1.79 1.77 1.80 1.79 1.72 1.73 1.71 1.54 1.47 1.32 1.22 1.16 0.95 0.89 0.78 0.76 0.79 0.78 0.83 0.84 0.85 0.83 0.78 0.70 0.65 0.65 0.67 0.75 0.82 0.86 0.86 0.84 0.84 0.80 0.76 0.78 0.80 0.77 0.66 0.61 0.60 0.58 0.54
2.48 2.48 2.41 2.32 2.23 2.16 2.01 1.90 1.77 1.56 1.40 1.28 1.04 0.97 0.90 0.88 0.89 0.86 0.82 0.74 0.69 0.66 0.66 0.68 0.69 0.63 0.57 0.60 0.65 0.71 0.77 0.81 0.79 0.76 0.75 0.79 0.80 0.73 0.65 0.61 0.59 0.60 0.60
3.24 3.23 3.08 2.82 2.66 2.58 2.41 2.27 2.04 1.82 1.57 1.37 1.31 1.14 0.92 0.84 0.82 0.74 0.66 0.59 0.59 0.58 0.57 0.57 0.53 0.51 0.46 0.48 0.50 0.52 0.59 0.68 0.74 0.79 0.81 0.80 0.76 0.73 0.69 0.67 0.66 0.65 0.65
3.68 3.63 3.57 3.41 3.13 2.93 2.69 2.38 2.20 2.02 1.67 1.39 1.33 1.25 1.01 0.83 0.67 0.54 0.47 0.43 0.42 0.44 0.46 0.47 0.47 0.46 0.43 0.42 0.46 0.52 0.56 0.62 0.70 0.73 0.75 0.78 0.79 0.80 0.81 0.82 0.82 0.80 0.76
4.12 3.98 3.79 3.48 3.16 2.91 2.76 2.50 2.22 2.04 1.76 1.45 1.26 1.21 1.09 0.95 0.76 0.57 0.44 0.39 0.34 0.31 0.30 0.30 0.30 0.29 0.30 0.31 0.35 0.46 0.51 0.52 0.58 0.63 0.68 0.74 0.78 0.79 0.81 0.82 0.83 0.86 0.86
3.83 3.57 3.41 3.27 2.99 2.58 2.26 2.05 1.84 1.62 1.46 1.31 1.13 0.97 0.86 0.78 0.79 0.72 0.56 0.43 0.35 0.31 0.26 0.22 0.22 0.23 0.25 0.27 0.35 0.43 0.47 0.47 0.52 0.54 0.54 0.57 0.61 0.65 0.70 0.77 0.83 0.88 0.93
3.31 3.03 2.83 2.61 2.33 1.92 1.54 1.34 1.21 1.14 1.07 1.00 0.93 0.85 0.78 0.72 0.68 0.69 0.63 0.49 0.42 0.39 0.36 0.33 0.30 0.28 0.26 0.26 0.30 0.41 0.45 0.40 0.40 0.40 0.42 0.44 0.46 0.50 0.56 0.63 0.71 0.78 0.83
2.77 2.42 2.08 1.72 1.44 1.24 1.04 0.92 0.83 0.79 0.78 0.76 0.74 0.69 0.64 0.62 0.62 0.61 0.61 0.55 0.47 0.42 0.37 0.32 0.28 0.24 0.21 0.21 0.24 0.31 0.28 0.28 0.28 0.27 0.28 0.29 0.30 0.31 0.36 0.43 0.52 0.60 0.68
2.07 1.79 1.47 1.26 1.06 0.92 0.82 0.71 0.62 0.57 0.55 0.57 0.58 0.57 0.56 0.54 0.50 0.48 0.50 0.51 0.44 0.36 0.30 0.27 0.24 0.22 0.21 0.21 0.21 0.25 0.23 0.22 0.20 0.18 0.17 0.17 0.17 0.18 0.21 0.25 0.31 0.39 0.49
1.49 1.23 1.00 0.84 0.73 0.66 0.62 0.59 0.53 0.50 0.46 0.45 0.46 0.44 0.42 0.40 0.36 0.33 0.33 0.34 0.35 0.32 0.27 0.23 0.19 0.15 0.13 0.14 0.17 0.19 0.18 0.19 0.17 0.15 0.13 0.11 0.11 0.11 0.12 0.14 0.17 0.21 0.26
0.92 0.77 0.65 0.57 0.52 0.48 0.44 0.40 0.39 0.38 0.37 0.35 0.33 0.30 0.28 0.26 0.23 0.21 0.22 0.24 0.28 0.30 0.25 0.18 0.15 0.11 0.09 0.09 0.11 0.10 0.13 0.15 0.13 0.12 0.10 0.08 0.08 0.08 0.09 0.10 0.11 0.14 0.16
0.59 0.53 0.45 0.39 0.35 0.31 0.26 0.22 0.22 0.22 0.23 0.24 0.24 0.23 0.22 0.19 0.18 0.17 0.17 0.18 0.20 0.24 0.22 0.13 0.10 0.08 0.07 0.07 0.08 0.09 0.10 0.10 0.10 0.10 0.09 0.09 0.09 0.09 0.10 0.10 0.12 0.14 0.15
0.35 0.31 0.27 0.24 0.22 0.19 0.18 0.17 0.17 0.18 0.19 0.18 0.17 0.16 0.16 0.15 0.15 0.13 0.12 0.12 0.12 0.16 0.18 0.11 0.08 0.08 0.09 0.11 0.11 0.13 0.13 0.14 0.14 0.17 0.17 0.15 0.14 0.12 0.13 0.14 0.16 0.16 0.16
0.24 0.19 0.17 0.16 0.16 0.15 0.15 0.14 0.14 0.14 0.15 0.14 0.13 0.11 0.10 0.10 0.11 0.11 0.10 0.10 0.10 0.13 0.16 0.15 0.11 0.10 0.11 0.14 0.16 0.17 0.11 0.09 0.13 0.17 0.17 0.14 0.13 0.13 0.13 0.13 0.13 0.12 0.10
0.20 0.18 0.15 0.13 0.12 0.11 0.10 0.10 0.10 0.10 0.10 0.09 0.09 0.08 0.08 0.08 0.09 0.10 0.11 0.12 0.13 0.13 0.19 0.23 0.19 0.16 0.13 0.12 0.17 0.15 0.15 0.23 0.15 0.13 0.12 0.09 0.08 0.07 0.07 0.06 0.06 0.06 0.05
0.14 0.13 0.12 0.10 0.09 0.08 0.07 0.06 0.06 0.07 0.07 0.06 0.06 0.05 0.05 0.06 0.08 0.11 0.12 0.14 0.18 0.21 0.24 0.27 0.22 0.17 0.16 0.14 0.23 0.23 0.21 0.25 0.21 0.12 0.11 0.08 0.07 0.05 0.05 0.05 0.06 0.05 0.04
0.12 0.09 0.07 0.05 0.03 0.03 0.02 0.02 0.02 0.03 0.04 0.04 0.03 0.03 0.03 0.04 0.06 0.10 0.12 0.17 0.23 0.28 0.28 0.30 0.27 0.23 0.20 0.22 0.26 0.27 0.29 0.26 0.21 0.15 0.16 0.15 0.17 0.22 0.25 0.20 0.14 0.11 0.06
0.06 0.04 0.03 0.03 0.02 0.01 0.00 0.00 0.00 0.02 0.03 0.05 0.06 0.05 0.04 0.03 0.04 0.07 0.10 0.15 0.22 0.27 0.29 0.32 0.31 0.31 0.28 0.32 0.37 0.39 0.42 0.40 0.33 0.23 0.26 0.21 0.19 0.28 0.32 0.32 0.26 0.16 0.09
0.07 0.05 0.04 0.03 0.03 0.01 0.00 0.00 0.00 0.02 0.06 0.09 0.10 0.10 0.07 0.05 0.08 0.11 0.10 0.10 0.14 0.14 0.23 0.34 0.40 0.40 0.42 0.47 0.55 0.54 0.51 0.50 0.46 0.37 0.44 0.40 0.31 0.36 0.29 0.29 0.33 0.27 0.20
0.09 0.08 0.06 0.05 0.06 0.03 0.00 0.00 0.00 0.03 0.08 0.09 0.09 0.11 0.14 0.15 0.11 0.08 0.08 0.13 0.19 0.23 0.26 0.33 0.46 0.49 0.48 0.50 0.57 0.59 0.58 0.55 0.51 0.50 0.56 0.55 0.39 0.39 0.34 0.49 0.53 0.47 0.36
0.11 0.10 0.08 0.09 0.10 0.07 0.01 0.00 0.00 0.03 0.07 0.07 0.07 0.07 0.08 0.12 0.09 0.09 0.11 0.21 0.27 0.32 0.27 0.36 0.47 0.52 0.53 0.56 0.57 0.58 0.65 0.70 0.64 0.53 0.54 0.57 0.51 0.43 0.45 0.64 0.64 0.65 0.55
0.12 0.10 0.09 0.11 0.12 0.10 0.02 0.00 0.01 0.03 0.07 0.08 0.11 0.13 0.09 0.08 0.10 0.10 0.10 0.20 0.29 0.32 0.42 0.62 0.75 0.75 0.71 0.69 0.63 0.64 0.73 0.75 0.74 0.70 0.60 0.60 0.65 0.58 0.59 0.69 0.76 0.72 0.67

GEFSMA_prec_meanprecacc_108.txt.gz
Total_Precipitation_Accumulation
0.64 0.72 0.67 0.59 0.50 0.49 0.45 0.36 0.29 0.34 0.36 0.30 0.20 0.19 0.19 0.23 0.24 0.30 0.38 0.32 0.34 0.47 0.61 0.66 0.70 0.64 0.61 0.63 0.64 0.59 0.52 0.48 0.47 0.42 0.35 0.30 0.27 0.27 0.28 0.29 0.30 0.29 0.28
0.86 0.90 0.95 0.90 0.77 0.74 0.73 0.65 0.55 0.53 0.49 0.44 0.35 0.26 0.24 0.31 0.34 0.35 0.43 0.44 0.45 0.52 0.67 0.83 0.89 0.83 0.79 0.81 0.75 0.69 0.65 0.61 0.60 0.58 0.53 0.46 0.39 0.37 0.36 0.37 0.37 0.34 0.30
1.20 1.17 1.20 1.11 1.02 0.97 0.98 0.96 0.89 0.79 0.63 0.54 0.50 0.45 0.42 0.42 0.44 0.46 0.55 0.69 0.69 0.64 0.68 0.77 0.83 0.89 0.91 0.94 0.94 0.90 0.90 0.81 0.73 0.69 0.68 0.64 0.59 0.53 0.49 0.46 0.44 0.41 0.37
1.47 1.51 1.56 1.44 1.32 1.29 1.36 1.38 1.25 1.12 0.96 0.90 0.84 0.75 0.65 0.64 0.65 0.70 0.73 0.85 0.94 0.86 0.79 0.70 0.68 0.78 0.86 0.96 0.99 1.00 0.93 0.82 0.79 0.80 0.80 0.78 0.71 0.67 0.61 0.59 0.57 0.54 0.48
1.93 1.90 1.91 1.90 1.83 1.85 1.82 1.65 1.58 1.42 1.32 1.25 1.05 0.98 0.86 0.85 0.88 0.87 0.92 0.94 0.96 0.95 0.90 0.79 0.70 0.72 0.75 0.84 0.92 0.97 0.95 0.90 0.90 0.85 0.81 0.82 0.83 0.80 0.68 0.62 0.62 0.60 0.56
2.64 2.63 2.56 2.45 2.37 2.32 2.16 2.05 1.92 1.72 1.55 1.41 1.16 1.08 1.01 0.98 0.98 0.95 0.90 0.83 0.79 0.75 0.75 0.77 0.77 0.71 0.66 0.68 0.72 0.78 0.84 0.89 0.86 0.82 0.81 0.84 0.83 0.76 0.67 0.63 0.61 0.61 0.62
3.38 3.37 3.25 2.97 2.79 2.74 2.60 2.48 2.25 2.02 1.76 1.55 1.48 1.28 1.04 0.96 0.94 0.84 0.74 0.67 0.66 0.65 0.65 0.65 0.62 0.59 0.54 0.56 0.58 0.59 0.66 0.75 0.80 0.83 0.84 0.82 0.79 0.74 0.71 0.68 0.67 0.67 0.66
3.79 3.75 3.70 3.59 3.30 3.09 2.87 2.59 2.43 2.25 1.89 1.59 1.52 1.43 1.18 0.98 0.79 0.65 0.57 0.53 0.50 0.52 0.53 0.54 0.54 0.54 0.51 0.48 0.53 0.59 0.62 0.68 0.74 0.77 0.77 0.80 0.81 0.81 0.82 0.83 0.83 0.82 0.78
4.22 4.07 3.87 3.59 3.33 3.09 2.93 2.69 2.43 2.27 1.99 1.67 1.48 1.44 1.31 1.13 0.89 0.70 0.57 0.50 0.44 0.40 0.38 0.36 0.35 0.34 0.35 0.36 0.40 0.51 0.56 0.57 0.64 0.68 0.71 0.76 0.79 0.80 0.82 0.83 0.84 0.87 0.88
3.93 3.67 3.51 3.37 3.14 2.78 2.47 2.27 2.06 1.83 1.68 1.55 1.39 1.21 1.10 0.98 0.95 0.90 0.76 0.62 0.51 0.44 0.37 0.32 0.30 0.31 0.32 0.33 0.41 0.49 0.52 0.52 0.57 0.59 0.59 0.60 0.64 0.67 0.72 0.79 0.85 0.89 0.94
3.38 3.12 2.96 2.78 2.52 2.14 1.77 1.60 1.52 1.45 1.35 1.28 1.24 1.15 1.06 0.96 0.88 0.88 0.86 0.73 0.64 0.57 0.51 0.47 0.44 0.40 0.37 0.36 0.39 0.49 0.52 0.46 0.45 0.44 0.44 0.47 0.48 0.52 0.57 0.64 0.72 0.78 0.84
2.82 2.48 2.16 1.85 1.62 1.45 1.24 1.16 1.13 1.12 1.14 1.11 1.11 1.05 0.96 0.91 0.86 0.83 0.82 0.78 0.70 0.62 0.53 0.48 0.43 0.39 0.35 0.34 0.35 0.42 0.36 0.34 0.31 0.30 0.30 0.30 0.31 0.32 0.36 0.44 0.52 0.60 0.69
2.11 1.84 1.55 1.34 1.18 1.08 1.00 0.91 0.86 0.86 0.86 0.88 0.92 0.92 0.89 0.84 0.78 0.77 0.81 0.82 0.71 0.60 0.50 0.45 0.40 0.37 0.36 0.34 0.31 0.33 0.28 0.26 0.23 0.21 0.19 0.18 0.18 0.19 0.21 0.25 0.31 0.39 0.49
1.53 1.28 1.07 0.92 0.82 0.77 0.74 0.71 0.68 0.68 0.68 0.68 0.73 0.76 0.78 0.74 0.68 0.64 0.65 0.66 0.67 0.61 0.51 0.43 0.35 0.29 0.24 0.22 0.23 0.25 0.22 0.23 0.20 0.16 0.14 0.12 0.11 0.11 0.12 0.14 0.17 0.21 0.26
0.98 0.82 0.70 0.63 0.59 0.56 0.51 0.46 0.48 0.51 0.55 0.56 0.54 0.55 0.59 0.58 0.52 0.48 0.48 0.48 0.53 0.54 0.47 0.36 0.29 0.23 0.17 0.15 0.16 0.14 0.16 0.18 0.15 0.13 0.11 0.09 0.08 0.08 0.09 0.10 0.11 0.14 0.16
0.65 0.59 0.50 0.44 0.40 0.37 0.33 0.29 0.28 0.29 0.32 0.38 0.40 0.42 0.46 0.48 0.47 0.43 0.41 0.39 0.39 0.41 0.39 0.29 0.23 0.18 0.15 0.12 0.13 0.12 0.12 0.12 0.11 0.10 0.09 0.09 0.09 0.09 0.10 0.10 0.12 0.14 0.15
0.41 0.37 0.32 0.29 0.27 0.24 0.23 0.23 0.24 0.24 0.26 0.27 0.28 0.30 0.33 0.35 0.38 0.36 0.31 0.28 0.27 0.29 0.30 0.22 0.17 0.14 0.15 0.16 0.15 0.15 0.14 0.15 0.14 0.17 0.17 0.15 0.14 0.12 0.13 0.14 0.16 0.16 0.16
0.29 0.24 0.20 0.20 0.20 0.19 0.18 0.18 0.19 0.19 0.20 0.20 0.19 0.19 0.19 0.20 0.24 0.24 0.23 0.21 0.21 0.23 0.25 0.23 0.18 0.15 0.15 0.17 0.18 0.19 0.11 0.10 0.13 0.17 0.17 0.14 0.13 0.13 0.13 0.13 0.13 0.12 0.10
0.25 0.22 0.18 0.16 0.14 0.13 0.12 0.12 0.12 0.13 0.13 0.13 0.13 0.13 0.13 0.13 0.14 0.15 0.17 0.18 0.17 0.18 0.24 0.27 0.22 0.19 0.16 0.14 0.18 0.16 0.15 0.23 0.16 0.13 0.12 0.09 0.08 0.07 0.07 0.06 0.06 0.06 0.05
0.17 0.15 0.14 0.12 0.11 0.09 0.08 0.08 0.08 0.08 0.08 0.07 0.06 0.07 0.07 0.08 0.10 0.13 0.14 0.17 0.19 0.23 0.26 0.29 0.24 0.19 0.17 0.15 0.23 0.24 0.22 0.25 0.21 0.12 0.11 0.08 0.07 0.05 0.05 0.05 0.06 0.05 0.04
0.16 0.12 0.09 0.07 0.05 0.03 0.03 0.03 0.03 0.03 0.04 0.04 0.04 0.03 0.03 0.04 0.06 0.10 0.14 0.18 0.24 0.29 0.29 0.31 0.28 0.24 0.21 0.23 0.27 0.28 0.29 0.26 0.22 0.15 0.17 0.16 0.18 0.23 0.26 0.21 0.14 0.11 0.06
0.11 0.08 0.05 0.04 0.03 0.01 0.01 0.00 0.01 0.02 0.04 0.05 0.06 0.05 0.04 0.03 0.04 0.07 0.10 0.15 0.22 0.28 0.30 0.33 0.32 0.31 0.29 0.32 0.38 0.39 0.42 0.40 0.34 0.24 0.27 0.22 0.20 0.29 0.34 0.33 0.26 0.16 0.09
0.10 0.08 0.05 0.04 0.04 0.02 0.00 0.00 0.00 0.02 0.06 0.09 0.10 0.10 0.07 0.05 0.08 0.11 0.10 0.10 0.14 0.14 0.23 0.34 0.40 0.41 0.42 0.47 0.55 0.54 0.52 0.51 0.47 0.37 0.45 0.42 0.32 0.37 0.30 0.29 0.33 0.27 0.20
0.11 0.10 0.07 0.06 0.06 0.03 0.00 0.00 0.00 0.03 0.08 0.09 0.09 0.11 0.15 0.15 0.11 0.08 0.08 0.13 0.19 0.23 0.26 0.33 0.47 0.50 0.48 0.50 0.57 0.60 0.59 0.57 0.53 0.51 0.57 0.56 0.40 0.40 0.35 0.51 0.54 0.47 0.36
0.13 0.12 0.10 0.10 0.10 0.07 0.01 0.00 0.00 0.04 0.08 0.08 0.07 0.07 0.08 0.12 0.09 0.09 0.11 0.21 0.27 0.32 0.27 0.36 0.47 0.52 0.53 0.56 0.57 0.58 0.66 0.72 0.66 0.56 0.54 0.58 0.52 0.44 0.46 0.65 0.65 0.65 0.55
0.13 0.11 0.11 0.12 0.13 0.11 0.02 0.00 0.01 0.04 0.08 0.09 0.11 0.13 0.09 0.08 0.10 0.10 0.11 0.21 0.30 0.33 0.42 0.62 0.75 0.75 0.71 0.69 0.64 0.65 0.74 0.77 0.76 0.73 0.61 0.61 0.67 0.59 0.61 0.70 0.77 0.72 0.68

GEFSMA_prec_meanprecacc_114.txt.gz
Total_Precipitation_Accumulation
0.82 0.90 0.86 0.79 0.72 0.72 0.67 0.57 0.47 0.50 0.49 0.40 0.30 0.26 0.25 0.27 0.28 0.35 0.44 0.36 0.37 0.50 0.64 0.70 0.75 0.70 0.67 0.68 0.69 0.63 0.55 0.51 0.49 0.45 0.38 0.33 0.30 0.30 0.31 0.32 0.32 0.30 0.30
1.09 1.15 1.18 1.13 0.99 0.99 0.98 0.87 0.76 0.75 0.68 0.61 0.51 0.38 0.30 0.39 0.42 0.42 0.51 0.49 0.48 0.55 0.71 0.88 0.95 0.91 0.87 0.88 0.80 0.74 0.69 0.65 0.64 0.62 0.57 0.50 0.43 0.40 0.40 0.40 0.39 0.36 0.32
1.48 1.48 1.50 1.41 1.31 1.31 1.31 1.21 1.11 1.02 0.85 0.74 0.68 0.60 0.52 0.50 0.53 0.56 0.71 0.84 0.77 0.69 0.72 0.81 0.89 0.96 0.99 1.03 1.01 0.96 0.96 0.86 0.78 0.74 0.72 0.69 0.63 0.56 0.51 0.48 0.46 0.43 0.38
1.75 1.82 1.88 1.79 1.66 1.57 1.66 1.66 1.51 1.36 1.18 1.10 1.06 0.97 0.84 0.79 0.77 0.87 0.98 1.10 1.13 0.98 0.86 0.75 0.73 0.84 0.95 1.05 1.09 1.07 0.99 0.88 0.84 0.84 0.84 0.82 0.75 0.69 0.63 0.60 0.59 0.55 0.50
2.26 2.24 2.23 2.23 2.17 2.17 2.12 1.90 1.84 1.70 1.59 1.48 1.26 1.21 1.10 1.07 1.08 1.05 1.13 1.16 1.21 1.14 1.04 0.88 0.77 0.78 0.84 0.94 1.02 1.06 1.02 0.97 0.95 0.89 0.85 0.85 0.86 0.82 0.70 0.64 0.63 0.62 0.58
2.81 2.89 2.84 2.73 2.66 2.59 2.42 2.32 2.20 2.01 1.83 1.67 1.39 1.30 1.22 1.19 1.17 1.12 1.06 0.99 1.00 0.95 0.92 0.91 0.91 0.81 0.77 0.79 0.81 0.86 0.94 0.97 0.92 0.87 0.87 0.88 0.87 0.80 0.70 0.65 0.63 0.63 0.63
3.49 3.47 3.37 3.11 2.96 2.93 2.80 2.69 2.49 2.29 2.04 1.82 1.73 1.51 1.24 1.13 1.09 0.99 0.90 0.83 0.82 0.81 0.80 0.80 0.78 0.74 0.66 0.65 0.67 0.69 0.76 0.84 0.86 0.89 0.91 0.88 0.84 0.80 0.75 0.72 0.70 0.68 0.67
3.88 3.84 3.82 3.72 3.46 3.27 3.06 2.80 2.66 2.48 2.12 1.85 1.75 1.63 1.37 1.15 0.92 0.76 0.69 0.64 0.62 0.64 0.66 0.66 0.65 0.67 0.64 0.61 0.63 0.68 0.70 0.77 0.82 0.84 0.84 0.85 0.85 0.85 0.85 0.85 0.84 0.83 0.79
4.26 4.12 3.96 3.69 3.47 3.30 3.16 2.94 2.67 2.49 2.20 1.93 1.74 1.67 1.51 1.31 1.03 0.82 0.67 0.60 0.53 0.50 0.50 0.49 0.47 0.47 0.47 0.49 0.51 0.62 0.68 0.69 0.75 0.76 0.78 0.81 0.83 0.83 0.84 0.85 0.85 0.88 0.89
3.96 3.71 3.56 3.43 3.24 2.93 2.68 2.54 2.35 2.08 1.89 1.74 1.61 1.43 1.30 1.17 1.13 1.06 0.92 0.78 0.66 0.60 0.53 0.46 0.44 0.45 0.45 0.46 0.53 0.62 0.67 0.69 0.76 0.73 0.69 0.69 0.71 0.73 0.76 0.83 0.88 0.92 0.96
3.41 3.16 3.01 2.83 2.57 2.22 1.89 1.77 1.78 1.76 1.64 1.51 1.46 1.38 1.29 1.19 1.09 1.06 1.06 0.95 0.86 0.78 0.71 0.66 0.62 0.58 0.53 0.50 0.52 0.62 0.65 0.59 0.60 0.58 0.56 0.57 0.57 0.59 0.63 0.69 0.76 0.81 0.87
2.86 2.51 2.20 1.91 1.69 1.51 1.31 1.26 1.28 1.33 1.40 1.39 1.38 1.33 1.24 1.18 1.11 1.07 1.05 1.02 0.95 0.86 0.76 0.69 0.64 0.58 0.52 0.49 0.50 0.56 0.48 0.45 0.41 0.38 0.38 0.37 0.37 0.37 0.41 0.48 0.56 0.63 0.71
2.17 1.88 1.58 1.39 1.25 1.16 1.10 1.03 0.99 1.01 1.09 1.16 1.20 1.21 1.21 1.18 1.12 1.10 1.13 1.12 1.00 0.89 0.78 0.71 0.64 0.58 0.54 0.50 0.46 0.47 0.40 0.36 0.32 0.28 0.26 0.25 0.24 0.24 0.26 0.30 0.35 0.41 0.50
1.59 1.33 1.11 0.95 0.85 0.82 0.81 0.81 0.82 0.84 0.87 0.92 1.00 1.06 1.10 1.09 1.05 1.02 1.00 0.98 1.00 0.93 0.79 0.69 0.59 0.51 0.44 0.39 0.39 0.39 0.33 0.33 0.29 0.25 0.22 0.20 0.17 0.16 0.15 0.17 0.19 0.22 0.26
1.00 0.86 0.73 0.66 0.62 0.60 0.56 0.53 0.56 0.61 0.68 0.72 0.74 0.78 0.86 0.90 0.90 0.87 0.86 0.84 0.86 0.88 0.77 0.61 0.51 0.43 0.34 0.29 0.29 0.24 0.25 0.26 0.22 0.19 0.16 0.13 0.11 0.10 0.10 0.11 0.12 0.14 0.16
0.68 0.61 0.52 0.47 0.43 0.41 0.37 0.34 0.35 0.37 0.41 0.48 0.53 0.58 0.64 0.69 0.72 0.74 0.75 0.73 0.69 0.67 0.64 0.51 0.42 0.36 0.29 0.23 0.22 0.19 0.19 0.19 0.17 0.15 0.13 0.11 0.10 0.10 0.10 0.11 0.12 0.14 0.15
0.44 0.39 0.34 0.31 0.30 0.27 0.26 0.27 0.30 0.32 0.34 0.36 0.38 0.42 0.46 0.48 0.53 0.56 0.53 0.51 0.49 0.48 0.49 0.42 0.34 0.28 0.25 0.25 0.23 0.23 0.21 0.20 0.19 0.20 0.19 0.17 0.14 0.13 0.13 0.14 0.16 0.16 0.16
0.32 0.28 0.24 0.22 0.23 0.24 0.22 0.22 0.24 0.26 0.28 0.29 0.28 0.29 0.30 0.32 0.36 0.38 0.39 0.39 0.39 0.41 0.42 0.41 0.35 0.29 0.28 0.28 0.27 0.27 0.17 0.15 0.17 0.19 0.18 0.15 0.14 0.13 0.13 0.13 0.13 0.12 0.10
0.27 0.24 0.21 0.19 0.18 0.17 0.17 0.16 0.17 0.18 0.19 0.20 0.20 0.21 0.21 0.21 0.23 0.24 0.27 0.29 0.31 0.33 0.40 0.42 0.35 0.30 0.26 0.22 0.25 0.22 0.19 0.27 0.18 0.14 0.13 0.10 0.08 0.07 0.07 0.06 0.06 0.06 0.05
0.19 0.17 0.16 0.14 0.14 0.12 0.12 0.12 0.12 0.12 0.12 0.12 0.11 0.11 0.11 0.12 0.15 0.19 0.21 0.25 0.29 0.33 0.37 0.39 0.33 0.26 0.24 0.21 0.28 0.28 0.26 0.28 0.22 0.12 0.11 0.08 0.07 0.05 0.05 0.05 0.06 0.05 0.04
0.18 0.13 0.10 0.08 0.06 0.05 0.06 0.06 0.07 0.07 0.08 0.08 0.07 0.06 0.05 0.05 0.07 0.12 0.16 0.21 0.28 0.34 0.36 0.38 0.35 0.31 0.27 0.29 0.31 0.31 0.32 0.29 0.24 0.16 0.18 0.17 0.19 0.24 0.27 0.21 0.14 0.11 0.06
0.13 0.10 0.07 0.05 0.04 0.03 0.03 0.02 0.03 0.05 0.07 0.07 0.07 0.06 0.04 0.03 0.04 0.07 0.10 0.16 0.24 0.31 0.34 0.38 0.37 0.37 0.34 0.37 0.41 0.42 0.44 0.43 0.39 0.26 0.29 0.24 0.21 0.32 0.37 0.35 0.27 0.16 0.09
0.14 0.11 0.08 0.06 0.05 0.03 0.01 0.01 0.01 0.04 0.08 0.11 0.12 0.11 0.08 0.05 0.08 0.11 0.10 0.10 0.14 0.15 0.24 0.37 0.44 0.45 0.46 0.50 0.58 0.57 0.55 0.55 0.51 0.40 0.47 0.44 0.34 0.39 0.32 0.30 0.34 0.27 0.20
0.15 0.14 0.11 0.08 0.07 0.03 0.00 0.00 0.00 0.05 0.10 0.10 0.11 0.13 0.16 0.16 0.11 0.09 0.09 0.14 0.20 0.23 0.26 0.35 0.49 0.52 0.50 0.52 0.59 0.62 0.61 0.60 0.57 0.54 0.59 0.60 0.43 0.41 0.36 0.52 0.55 0.47 0.36
0.18 0.17 0.14 0.12 0.11 0.07 0.01 0.00 0.01 0.06 0.09 0.08 0.08 0.08 0.09 0.12 0.09 0.10 0.14 0.24 0.28 0.33 0.27 0.37 0.47 0.52 0.53 0.56 0.57 0.60 0.69 0.76 0.72 0.61 0.56 0.60 0.54 0.46 0.48 0.68 0.67 0.66 0.55
0.18 0.15 0.14 0.15 0.14 0.11 0.02 0.00 0.01 0.05 0.10 0.10 0.11 0.13 0.09 0.08 0.10 0.10 0.13 0.23 0.32 0.34 0.43 0.63 0.76 0.76 0.72 0.69 0.64 0.67 0.77 0.80 0.81 0.78 0.63 0.63 0.68 0.61 0.64 0.73 0.79 0.74 0.69